| time (UTC) | temp F | wind direction | speed MPH | gust MPH | rain 1hr in | rain 24hr in | rain mn in | humidity % | barometer mb |
| 20260507113117 | 58 | 304 | 3.0 | 7.0 | 0.00 | 0.00 | 0.00 | 70 | 1014.8 |
| 20260507111547 | 58 | 327 | 4.0 | 6.0 | 0.00 | 0.00 | 0.00 | 70 | 1014.8 |
| 20260507110031 | 58 | 40 | 1.0 | 6.0 | 0.00 | 0.00 | 0.00 | 69 | 1014.9 |
| 20260507104625 | 57 | 17 | 3.0 | 5.0 | 0.00 | 0.00 | 0.00 | 70 | 1015.1 |
| 20260507103111 | 57 | 20 | 4.0 | 6.0 | 0.00 | 0.00 | 0.00 | 70 | 1015.1 |
| 20260507101613 | 57 | 47 | 3.0 | 6.0 | 0.00 | 0.00 | 0.00 | 70 | 1015.1 |
| 20260507100047 | 57 | 289 | 3.0 | 5.0 | 0.00 | 0.00 | 0.00 | 71 | 1015.0 |
| 20260507094511 | 56 | 242 | 1.0 | 7.0 | 0.00 | 0.00 | 0.00 | 69 | 1014.9 |
| 20260507093002 | 56 | 157 | 1.0 | 5.0 | 0.00 | 0.00 | 0.00 | 70 | 1014.9 |
| 20260507091556 | 57 | 102 | 5.0 | 7.0 | 0.00 | 0.00 | 0.00 | 73 | 1014.8 |
| 20260507090042 | 56 | 112 | 3.0 | 10.0 | 0.00 | 0.00 | 0.00 | 78 | 1014.7 |
| 20260507084640 | 56 | 117 | 5.0 | 7.0 | 0.00 | 0.00 | 0.00 | 81 | 1014.8 |
| 20260507083103 | 54 | 98 | 5.0 | 7.0 | 0.00 | 0.00 | 0.00 | 87 | 1014.6 |
| 20260507081552 | 52 | 100 | 2.0 | 6.0 | 0.00 | 0.00 | 0.00 | 89 | 1014.6 |
| 20260507080041 | 50 | 96 | 4.0 | 6.0 | 0.00 | 0.00 | 0.00 | 90 | 1014.6 |
| 20260507074502 | 50 | 74 | 4.0 | 7.0 | 0.00 | 0.00 | 0.00 | 91 | 1014.6 |
| 20260507073118 | 49 | 86 | 5.0 | 7.0 | 0.00 | 0.00 | 0.00 | 92 | 1014.4 |
| 20260507071609 | 49 | 82 | 4.0 | 7.0 | 0.00 | 0.00 | 0.00 | 92 | 1014.3 |
| 20260507070054 | 48 | 80 | 5.0 | 7.0 | 0.00 | 0.00 | 0.00 | 93 | 1014.3 |
| 20260507064518 | 48 | 62 | 3.0 | 5.0 | 0.00 | 0.00 | 0.00 | 93 | 1014.3 |
| 20260507063008 | 47 | 60 | 4.0 | 6.0 | 0.00 | 0.00 | 0.00 | 93 | 1014.3 |
| 20260507061602 | 47 | 50 | 1.0 | 3.0 | 0.00 | 0.00 | 0.00 | 93 | 1014.2 |
| 20260507060048 | 46 | 50 | 1.0 | 5.0 | 0.00 | 0.00 | 0.00 | 93 | 1014.1 |
| 20260507054642 | 46 | 50 | 2.0 | 3.0 | 0.00 | 0.00 | 0.00 | 93 | 1013.9 |
| 20260507053125 | 46 | 50 | 0.0 | 2.0 | 0.00 | 0.00 | 0.00 | 93 | 1013.7 |
| 20260507051604 | 46 | 50 | 0.0 | 2.0 | 0.00 | 0.00 | 0.00 | 93 | 1013.5 |
| 20260507050027 | 45 | 50 | 0.0 | 0.0 | 0.00 | 0.00 | 0.00 | 93 | 1013.4 |
| 20260507044509 | 45 | 50 | 0.0 | 0.0 | 0.00 | 0.00 | 0.00 | 93 | 1013.3 |
| 20260507043125 | 45 | 50 | 0.0 | 4.0 | 0.00 | 0.00 | 0.00 | 92 | 1013.3 |
| 20260507041615 | 45 | 50 | 3.0 | 5.0 | 0.00 | 0.00 | 0.00 | 92 | 1013.2 |
| 20260507034555 | 45 | 312 | 0.0 | 0.0 | 0.00 | 0.00 | 0.00 | 93 | 1012.8 |
| 20260507033037 | 45 | 313 | 0.0 | 0.0 | 0.00 | 0.00 | 0.00 | 93 | 1012.6 |
| 20260507031501 | 44 | 312 | 0.0 | 0.0 | 0.00 | 0.00 | 0.00 | 92 | 1012.4 |
| 20260507030117 | 44 | 312 | 0.0 | 0.0 | 0.00 | 0.00 | 0.00 | 92 | 1012.4 |
| 20260507024609 | 44 | 312 | 0.0 | 1.0 | 0.00 | 0.00 | 0.00 | 92 | 1012.4 |
| 20260507023010 | 43 | 312 | 0.0 | 0.0 | 0.00 | 0.00 | 0.00 | 92 | 1012.3 |
| 20260507021625 | 43 | 312 | 1.0 | 2.0 | 0.00 | 0.00 | 0.00 | 92 | 1012.4 |
| 20260507020116 | 42 | 312 | 1.0 | 3.0 | 0.00 | 0.00 | 0.00 | 91 | 1012.3 |
| 20260507014517 | 42 | 312 | 1.0 | 5.0 | 0.00 | 0.00 | 0.00 | 91 | 1012.1 |
| 20260507013004 | 43 | 312 | 2.0 | 6.0 | 0.00 | 0.00 | 0.00 | 91 | 1012.2 |
| 20260507011617 | 43 | 342 | 0.0 | 2.0 | 0.00 | 0.00 | 0.00 | 91 | 1012.1 |
| 20260507010105 | 42 | 342 | 1.0 | 2.0 | 0.00 | 0.00 | 0.00 | 91 | 1012.1 |
| 20260507004602 | 42 | 342 | 1.0 | 2.0 | 0.00 | 0.00 | 0.00 | 91 | 1012.0 |
| 20260507003045 | 42 | 342 | 1.0 | 2.0 | 0.00 | 0.00 | 0.00 | 90 | 1012.1 |
| 20260507001509 | 43 | 342 | 0.0 | 0.0 | 0.00 | 0.00 | 0.00 | 90 | 1012.0 |
| 20260507000121 | 44 | 342 | 1.0 | 2.0 | 0.00 | 0.00 | 0.00 | 90 | 1012.0 |
| 20260506234602 | 44 | 342 | 1.0 | 2.0 | 0.00 | 0.00 | 0.00 | 90 | 1012.0 |
| 20260506233102 | 45 | 342 | 1.0 | 2.0 | 0.00 | 0.00 | 0.00 | 90 | 1011.9 |
| 20260506231514 | 46 | 342 | 0.0 | 4.0 | 0.00 | 0.00 | 0.00 | 90 | 1011.9 |
| 20260506230006 | 46 | 342 | 1.0 | 3.0 | 0.00 | 0.00 | 0.00 | 90 | 1011.9 |
| 20260506224620 | 47 | 342 | 0.0 | 2.0 | 0.00 | 0.00 | 0.00 | 89 | 1011.7 |
| 20260506223047 | 48 | 342 | 1.0 | 3.0 | 0.00 | 0.00 | 0.00 | 89 | 1011.5 |
| 20260506221618 | 48 | 342 | 1.0 | 3.0 | 0.00 | 0.00 | 0.00 | 89 | 1011.6 |
| 20260506220106 | 48 | 343 | 2.0 | 5.0 | 0.00 | 0.00 | 0.00 | 89 | 1011.6 |
| 20260506214556 | 49 | 345 | 2.0 | 5.0 | 0.00 | 0.00 | 0.00 | 89 | 1011.4 |
| 20260506213021 | 49 | 345 | 1.0 | 5.0 | 0.00 | 0.00 | 0.00 | 89 | 1011.4 |
| 20260506211505 | 49 | 321 | 4.0 | 6.0 | 0.00 | 0.00 | 0.00 | 88 | 1011.4 |
| 20260506210059 | 49 | 323 | 0.0 | 6.0 | 0.00 | 0.00 | 0.00 | 88 | 1011.3 |
| 20260506204523 | 50 | 342 | 3.0 | 7.0 | 0.00 | 0.00 | 0.00 | 87 | 1011.2 |
| 20260506203012 | 50 | 342 | 3.0 | 7.0 | 0.00 | 0.00 | 0.00 | 87 | 1011.1 |
| 20260506201628 | 50 | 346 | 2.0 | 6.0 | 0.00 | 0.00 | 0.00 | 86 | 1011.1 |
| 20260506200053 | 51 | 344 | 3.0 | 6.0 | 0.00 | 0.00 | 0.00 | 86 | 1011.0 |
| 20260506194542 | 51 | 340 | 3.0 | 8.0 | 0.00 | 0.00 | 0.00 | 85 | 1010.9 |
| 20260506193111 | 52 | 329 | 5.0 | 8.0 | 0.00 | 0.00 | 0.00 | 84 | 1010.8 |
| 20260506191601 | 52 | 342 | 3.0 | 9.0 | 0.00 | 0.00 | 0.00 | 83 | 1010.5 |
| 20260506190047 | 53 | 340 | 4.0 | 11.0 | 0.00 | 0.00 | 0.00 | 82 | 1010.4 |
| 20260506184522 | 53 | 350 | 9.0 | 14.0 | 0.00 | 0.00 | 0.00 | 80 | 1010.2 |
| 20260506183005 | 54 | 15 | 7.0 | 13.0 | 0.00 | 0.00 | 0.00 | 79 | 1010.2 |
| 20260506181628 | 54 | 17 | 7.0 | 14.0 | 0.00 | 0.00 | 0.00 | 78 | 1010.1 |
| 20260506174527 | 54 | 24 | 7.0 | 14.0 | 0.00 | 0.00 | 0.00 | 79 | 1009.8 |
| 20260506173015 | 55 | 313 | 9.0 | 15.0 | 0.00 | 0.00 | 0.00 | 78 | 1009.7 |
| 20260506171631 | 54 | 350 | 9.0 | 15.0 | 0.00 | 0.00 | 0.00 | 77 | 1009.6 |
| 20260506170013 | 55 | 13 | 8.0 | 16.0 | 0.00 | 0.00 | 0.00 | 77 | 1009.5 |
| 20260506164628 | 55 | 5 | 9.0 | 15.0 | 0.00 | 0.00 | 0.00 | 76 | 1009.4 |
| 20260506163113 | 55 | 355 | 11.0 | 19.0 | 0.00 | 0.00 | 0.00 | 74 | 1009.3 |
| 20260506161602 | 57 | 324 | 10.0 | 20.0 | 0.00 | 0.00 | 0.00 | 72 | 1009.2 |
| 20260506160008 | 57 | 360 | 11.0 | 16.0 | 0.00 | 0.00 | 0.00 | 72 | 1009.2 |
| 20260506154620 | 57 | 350 | 11.0 | 19.0 | 0.00 | 0.00 | 0.00 | 74 | 1009.2 |
| 20260506153115 | 57 | 28 | 11.0 | 19.0 | 0.00 | 0.00 | 0.00 | 75 | 1009.3 |
| 20260506151556 | 57 | 355 | 11.0 | 18.0 | 0.00 | 0.00 | 0.00 | 75 | 1009.3 |
| 20260506150049 | 58 | 355 | 12.0 | 20.0 | 0.00 | 0.00 | 0.00 | 74 | 1009.3 |
| 20260506144616 | 57 | 355 | 13.0 | 19.0 | 0.00 | 0.00 | 0.00 | 74 | 1009.2 |
| 20260506143100 | 57 | 348 | 11.0 | 18.0 | 0.00 | 0.00 | 0.00 | 74 | 1009.1 |
| 20260506141504 | 57 | 5 | 9.0 | 18.0 | 0.00 | 0.00 | 0.00 | 74 | 1009.0 |
| 20260506140106 | 57 | 5 | 11.0 | 18.0 | 0.00 | 0.00 | 0.00 | 73 | 1009.0 |
| 20260506134502 | 57 | 360 | 11.0 | 18.0 | 0.00 | 0.00 | 0.00 | 73 | 1009.0 |
| 20260506133117 | 57 | 26 | 11.0 | 20.0 | 0.00 | 0.00 | 0.00 | 72 | 1009.0 |
| 20260506131607 | 57 | 34 | 12.0 | 21.0 | 0.00 | 0.00 | 0.00 | 73 | 1008.9 |
| 20260506130023 | 56 | 350 | 9.0 | 16.0 | 0.00 | 0.00 | 0.00 | 74 | 1008.8 |
| 20260506124506 | 56 | 355 | 11.0 | 20.0 | 0.00 | 0.00 | 0.00 | 76 | 1008.7 |
| 20260506123102 | 56 | 341 | 7.0 | 19.0 | 0.00 | 0.00 | 0.00 | 78 | 1008.7 |
| 20260506121524 | 55 | 355 | 10.0 | 18.0 | 0.00 | 0.00 | 0.00 | 79 | 1008.6 |
| 20260506120039 | 55 | 355 | 10.0 | 16.0 | 0.00 | 0.00 | 0.00 | 79 | 1008.7 |
| 20260506114616 | 55 | 349 | 10.0 | 19.0 | 0.00 | 0.00 | 0.00 | 79 | 1008.7 |